Regional Weather Roundup
Issued by NWS

Home | Current Version | Previous Version | Graphics & Text | Print | Product List | Glossary On
Versions: 1 2 3 4 5 6 7 8 9 10 11 12 13 14 15 16 17 18 19 20 21 22 23 24 25 26 27 28 29 30 31 32 33 34 35 36 37 38 39 40 41 42 43 44 45 46 47 48 49 50
000
ASUS45 KSLC 272110
RWRUT

UTAH REGIONAL WEATHER ROUNDUP
NATIONAL WEATHER SERVICE SALT LAKE CITY UT
200 PM MST THU NOV 27 2014

UTZ001>011-023>025-272200-

NORTHERN UTAH

CITY           SKY/WX    TMP DP  RH WIND       PRES   REMARKS
BRIGHAM CITY     N/A     55  27  34 CALM      30.23F
HILL AFB       PTSUNNY   58  24  26 S9        30.23F
LOGAN          SUNNY     49  33  54 CALM      30.22F
OGDEN            N/A     59  25  27 S6        30.22F
PROVO AIRPORT  CLOUDY    45  30  57 CALM      30.27F
SALT LAKE CITY PTSUNNY   57  28  33 SE5       30.22F
VERNAL         PTSUNNY   50  23  34 E5        30.29F
WENDOVER         N/A     52  27  37 E6        30.21F
HEBER CITY       N/A     45  30  57 CALM      30.28S
WEST JORDAN    SUNNY     55  32  41 S9G16     30.24S

$$

UTZ012>022-026-027-272200-

SOUTHERN/CENTRAL UTAH

CITY           SKY/WX    TMP DP  RH WIND       PRES   REMARKS
BLANDING         N/A     53  24  32 S7        30.44F
BRYCE CANYON     N/A     53  14  21 SE8       30.41F
CEDAR CITY       N/A     63  13  14 SW15G22   30.27F
DELTA            N/A     52  24  33 NE3       30.27F
MILFORD          N/A     56  20  24 SW16      30.26F
MOAB/CYNLANDS  SUNNY     54  24  31 CALM      30.33F
PRICE            N/A     50  23  34 SE5       30.36F
ST GEORGE        N/A     55  19  24 SW3       30.27F
KANAB            N/A     63  19  19 S5        30.34F

$$

REGIONAL REPORTS     COLORADO/ARIZONA

CITY           SKY/WX    TMP DP  RH WIND       PRES   REMARKS
CRAIG, CO      PTSUNNY   46  27  47 NE6       30.29F
GRAND JUNCTION SUNNY     52  26  36 NW5       30.34F
RIFLE          SUNNY     46  27  47 CALM      30.36F
MONTROSE       SUNNY     55  23  28 W5        30.36F
CORTEZ         SUNNY     56  23  27 SW9       30.37F
PAGE, AZ         N/A     55  18  23 NE5       30.34F
GRAND CANYON     N/A     65   1   8 SW8       30.38F
KINGMAN          N/A     75  12   9 W3        30.22F
FLAGSTAFF        N/A     63  12  13 E3        30.40F

$$

REGIONAL REPORTS    NEVADA/IDAHO/WYOMING

CITY           SKY/WX    TMP DP  RH WIND       PRES   REMARKS
LAS VEGAS, NV  PTSUNNY   64  20  18 S6        30.18F
ELY              N/A     62  14  15 E6        30.30F
ELKO             N/A     58  31  35 W5        30.21F
POCATELLO, ID  MOSUNNY   60  29  30 SW13      30.17F
BURLEY           N/A     63  31  30 SW14      30.13F
EVANSTON, WY   PTSUNNY   52  24  33 SW13      30.29F
ROCK SPRINGS   PTSUNNY   48  23  37 W9        30.25F

$$


USA.gov is the U.S. government's official web portal to all federal, state and local government web resources and services.